Regional Weather Roundup
Issued by NWS Upton, NY

Current Version | Previous Version | Text Only | Print | Product List | Glossary Off
Versions: 1 2 3 4 5 6 7 8 9 10 11 12 13 14 15 16 17 18 19 20 21 22 23 24 25 26 27
000 ASUS41 KOKX 022108 RWROKX REGIONAL WEATHER ROUNDUP NATIONAL WEATHER SERVICE NEW YORK NY 400 PM EST FRI DEC 02 2016 NOTE: "FAIR" INDICATES FEW OR NO CLOUDS BELOW 12,000 FEET WITH NO SIGNIFICANT WEATHER AND/OR OBSTRUCTIONS TO VISIBILITY. NYZ071-072-176-178-NJZ106-104-022200- NEW YORK CITY METRO AREA CITY SKY/WX TMP DP RH WIND PRES REMARKS Central Park CLOUDY 50 28 42 W9 29.89R Wall St Helipt CLOUDY 51 31 46 W13G23 29.88S Bronx Bot Gard N/A 50 28 43 NW3 29.87S LaGuardia APRT MOCLDY 51 28 41 W18G25 29.87R Kennedy INTL MOCLDY 51 27 39 W16 29.88S Breezy Point N/A 48 N/A N/A W15G24 N/A Newark/Liberty CLOUDY 50 28 42 W15G25 29.88R Teterboro CLOUDY 50 27 40 W14G21 29.86R $$ NYZ177-179-078>081-022200- LONG ISLAND NEW YORK CITY SKY/WX TMP DP RH WIND PRES REMARKS Jones Beach N/A 48 N/A N/A W14G20 N/A Matinecock PT NOT AVBL Farmingdale CLOUDY 50 27 40 W18G25 29.86R MacArthur/ISP CLOUDY 49 28 44 W16G22 29.85R Shirley MOCLDY 49 29 46 W14 29.85R Westhampton MOCLDY 48 28 46 W10 29.85R Southampton N/A 48 34 57 W8 29.81S Bridgehampton NOT AVBL East Hampton MOCLDY 48 29 47 W8G16 29.82S Montauk N/A 50 33 52 W14G22 29.82S $$ NYZ052-065-067-022200- HUDSON VALLEY CITY SKY/WX TMP DP RH WIND PRES REMARKS White Plains MOCLDY 48 28 46 W10G17 29.83S Newburgh MOCLDY 46 34 61 W14G21 29.84R Montgomery CLOUDY 48 29 47 W15G25 29.83R Poughkeepsie CLOUDY 46 31 55 W6 29.83R Albany MOCLDY 45 29 53 W14 29.80R $$ NJZ001-105-106-008-010-013-015-019>022-104-022200- NEW JERSEY CITY SKY/WX TMP DP RH WIND PRES REMARKS Newark/Liberty CLOUDY 50 28 42 W15G25 29.88R Teterboro CLOUDY 50 27 40 W14G21 29.86R Caldwell CLOUDY 50 26 39 W15G22 29.88R Somerville MOCLDY 49 26 41 VRB7G17 29.88R Linden CLOUDY 49 28 43 NW17G24 29.89R Sussex PTCLDY 47 28 47 SW8 29.86R Andover N/A 46 27 47 SW8 29.88R Trenton CLOUDY 49 26 41 W16G23 29.92R Millville CLEAR 48 31 51 W13G22 29.98R Atlantic City CLEAR 49 28 44 W16 29.95R Wrightstown CLOUDY 49 28 43 W13 29.90R Toms River CLOUDY 49 31 49 W10 29.93R Belmar CLOUDY N/A N/A N/A W9 29.91R $$ PAZ047>061-062-071-022200- EASTERN PENNSYLVANIA CITY SKY/WX TMP DP RH WIND PRES REMARKS Philadelphia PTCLDY 49 26 41 W23G30 29.96R Allentown CLOUDY 47 28 47 W10G21 29.92R Scranton CLOUDY 44 30 57 W12 29.88R $$ CTZ002-004>006-009-010-012-RIZ004-006-007-MAZ004-011-015-022200- SOUTHERN NEW ENGLAND IN CT CITY SKY/WX TMP DP RH WIND PRES REMARKS Bradley INTL MOCLDY 47 26 44 W10 29.79R Hartford CLOUDY 49 29 46 NW7 29.80R Danbury PTCLDY 46 29 51 VRB6 29.83R Wtrbury/Oxford MOCLDY 45 28 53 W7G20 29.82R Bridgeport MOCLDY 50 30 46 W8G20 29.83R Meriden CLOUDY 50 29 44 W10 29.81R New Haven MOCLDY 49 31 49 W6G20 29.82R Chester MOCLDY 48 28 46 VRB7G17 29.80R Groton CLOUDY 52 31 44 W10 29.80R Wilimantic MOCLDY 49 30 48 W6 29.80R IN RI CITY SKY/WX TMP DP RH WIND PRES REMARKS Providence PTCLDY 47 29 49 W8 29.78R Block Island MOCLDY 48 32 53 W9 29.81R Westerly CLOUDY 50 28 42 W5 29.80S IN MA CITY SKY/WX TMP DP RH WIND PRES REMARKS Boston PTCLDY 48 31 51 W10G26 29.74S Worcester MOCLDY 43 26 51 W16 29.74R Westfield CLOUDY 47 27 45 W7 29.78S Provincetown PTCLDY 48 34 58 W17G23 29.74S Nantucket PTCLDY 47 31 53 W8 29.77R $$ ANZ330-335-338-340-345-350-353-355-022200- COASTAL MARINE OBSERVATIONS STATION/POSITION TIME SKY/WX TEMP WIND PRES VSBY WAVE AIR SEA DIR/SP/G HT/PER (UTC) (F) (DEG/KT/KT) (MB) (MI) (FT/S) NY HARB ENTRANCE 2050 51 54 280/ 19/ 21 1011.7 3/ 4 20 S FIRE ISLAND 1950 50 55 290/ 23/ 27 1010.8 6/ 5 GREAT SOUTH BAY 2030 49 45 N/A 23 SSW MONTAUK P 2050 50 56 280/ 19/ 25 1010.3 5/ 6 15 E BARNEGAT LI 2030 54 N/A 4/ 4 HUDSON CANYON 1950 52 59 1011.8 6/ 6 KINGS POINT 2042 50 49 1011.0 EXECUTION ROCKS 2045 51 260/ 12/ 17 N/A CENTRAL LI SOUND 2015 50 52 270/ 17/ 21 N/A 3/ 4 EASTERN LI SOUND NOT AVBL ROBBINS REEF 2042 50 280/ 16/ 21 1011.7 $$ >>>>>>>>>>>>>>>>>>>>>>>>>>>> KEY <<<<<<<<<<<<<<<<<<<<<<<<<<< > < > SKY/WX - Sky Condition/Present Weather < > TMP - Temperature in Fahrenheit < > DP - Dew Point in Fahrenheit < > RH - Relative Humidity in Percent < > WIND - Direction (from) and Speed in MPH < > PRES - Mean Sea Level Pressure (inches of Hg) < > WCI - Wind Chill Index < > VSB - VISIBILITY IN MILES < > HX - HEAT INDEX < > TC - TEMPERATURE IN CELSIUS < > VRB - VARIABLE WIND DIRECTION < > < >>>>>>>>>>>>>>>>>>>>>>>>>>>> KEY <<<<<<<<<<<<<<<<<<<<<<<<<<<

USA.gov is the U.S. government's official web portal to all federal, state and local government web resources and services.